Alpine, TX

6:31 AM CST on December 08, 2016 (GMT -0600)
Alpine

Weather History for KE38 - January, 2014

Change the Weather History Date:

Saturday, January 18, 2014

  Actual Average (KMRF) Record (KMRF)
Temperature  
Mean Temperature 50 °F -  
Max Temperature 67 °F 57 °F 75 °F (2000)
Min Temperature 32 °F 26 °F 12 °F (2008)
Degree Days  
Heating Degree Days 16    
Moisture  
Dew Point 17 °F    
Average Humidity 31    
Maximum Humidity 52    
Minimum Humidity 12    
Precipitation  
Precipitation 0.00 in - - ()
Sea Level Pressure  
Sea Level Pressure 30.24 in    
Wind  
Wind Speed 8 mph (West)    
Max Wind Speed 14 mph    
Max Gust Speed 22 mph    
Visibility 10 miles    
Events      
Averages and records for this station are not official NWS values.
T = Trace of Precipitation, MM = Missing Value Source: NWS Daily Summary

Daily Weather History Graph

Daily Weather History Graph

Search for Another Location

Airport or City:

Trip Planner

Search our weather history database for the weather conditions in past years. The results will help you decide how hot, cold, wet, or windy it might be!

Date:

Astronomy

Jan. 18, 2014 Rise Set
Actual Time 7:51 AM CST 6:19 PM CST
Civil Twilight 7:25 AM CST 6:44 PM CST
Nautical Twilight 6:56 AM CST 7:14 PM CST
Astronomical Twilight 6:27 AM CST 7:43 PM CST
Moon 8:49 PM CST (1/18) 9:05 AM CST (1/18)
Length of Visible Light 11h 19m
Length of Day
10h 27m
Waning Gibbous, 94% of the Moon is Illuminated
Jan 18
Waning Gibbous
Jan 23
Last Quarter
Jan 30
New
Feb 6
First Quarter
Feb 14
Full

Hourly Weather History & Observations

Time (CST) Temp. Windchill Dew Point Humidity Pressure Visibility Wind Dir Wind Speed Gust Speed Precip Events Conditions
12:15 AM 37.8 °F 31.8 °F 19.8 °F 48% 30.23 in 10.0 mi SW 8.1 mph - N/A   Clear
12:35 AM 37.0 °F 31.0 °F 20.5 °F 51% 30.23 in 10.0 mi SW 8.1 mph - N/A   Clear
12:55 AM 36.1 °F 29.9 °F 19.2 °F 50% 30.22 in 10.0 mi WSW 8.1 mph - N/A   Clear
1:15 AM 40.5 °F 34.6 °F 20.1 °F 44% 30.22 in 10.0 mi SW 9.2 mph - N/A   Clear
1:35 AM 40.8 °F 34.1 °F 21.2 °F 46% 30.21 in 10.0 mi WSW 11.5 mph - N/A   Clear
1:55 AM 41.0 °F 33.9 °F 21.4 °F 46% 30.21 in 10.0 mi West 12.7 mph - N/A   Clear
2:15 AM 41.9 °F 35.4 °F 21.9 °F 45% 30.21 in 10.0 mi WSW 11.5 mph - N/A   Clear
2:35 AM 38.7 °F 31.8 °F 21.2 °F 50% 30.21 in 10.0 mi WSW 10.4 mph - N/A   Clear
2:55 AM 37.2 °F 31.2 °F 21.0 °F 52% 30.22 in 10.0 mi West 8.1 mph - N/A   Clear
3:15 AM 40.1 °F 35.3 °F 21.6 °F 48% 30.22 in 10.0 mi West 6.9 mph - N/A   Clear
3:35 AM 39.9 °F 37.8 °F 21.2 °F 47% 30.22 in 10.0 mi WSW 3.5 mph - N/A   Clear
3:55 AM 40.6 °F 36.0 °F 22.1 °F 48% 30.21 in 10.0 mi WSW 6.9 mph - N/A   Clear
4:15 AM 41.4 °F 36.8 °F 21.9 °F 46% 30.21 in 10.0 mi West 6.9 mph - N/A   Clear
4:35 AM 42.6 °F 39.9 °F 21.7 °F 44% 30.20 in 10.0 mi NW 4.6 mph - N/A   Clear
4:55 AM 43.3 °F 39.2 °F 21.6 °F 42% 30.20 in 10.0 mi WSW 6.9 mph - N/A   Clear
5:15 AM 42.1 °F 37.7 °F 20.5 °F 42% 30.19 in 10.0 mi SW 6.9 mph - N/A   Clear
5:35 AM 40.5 °F - 19.9 °F 44% 30.19 in 10.0 mi Calm Calm - N/A   Clear
5:55 AM 42.8 °F 40.1 °F 19.9 °F 40% 30.20 in 10.0 mi West 4.6 mph - N/A   Clear
6:15 AM 43.9 °F 39.9 °F 19.4 °F 38% 30.20 in 10.0 mi WSW 6.9 mph - N/A   Clear
6:35 AM 45.1 °F 42.0 °F 18.9 °F 35% 30.20 in 10.0 mi SW 5.8 mph - N/A   Clear
6:55 AM 43.2 °F 39.0 °F 18.5 °F 37% 30.20 in 10.0 mi WSW 6.9 mph - N/A   Clear
7:15 AM 41.9 °F 40.0 °F 18.1 °F 38% 30.21 in 10.0 mi West 3.5 mph - N/A   Clear
7:35 AM 40.5 °F 34.6 °F 18.7 °F 42% 30.21 in 10.0 mi SW 9.2 mph - N/A   Clear
7:55 AM 39.9 °F 34.5 °F 18.9 °F 43% 30.21 in 10.0 mi SSW 8.1 mph - N/A   Clear
8:15 AM 44.1 °F 40.8 °F 18.1 °F 35% 30.22 in 10.0 mi SSW 5.8 mph - N/A   Clear
8:35 AM 49.5 °F - 17.2 °F 28% 30.21 in 10.0 mi West 8.1 mph - N/A   Clear
8:55 AM 49.6 °F - 17.6 °F 28% 30.22 in 10.0 mi West 6.9 mph - N/A   Clear
9:15 AM 52.3 °F - 18.0 °F 26% 30.22 in 10.0 mi SW 5.8 mph - N/A   Clear
9:35 AM 53.4 °F - 17.6 °F 24% 30.23 in 10.0 mi WSW 8.1 mph - N/A   Clear
9:55 AM 54.9 °F - 16.5 °F 22% 30.24 in 10.0 mi West 13.8 mph - N/A   Clear
10:15 AM 56.5 °F - 16.0 °F 20% 30.24 in 10.0 mi West 10.4 mph 17.3 mph N/A   Clear
10:35 AM 57.9 °F - 15.6 °F 19% 30.24 in 10.0 mi West 13.8 mph 21.9 mph N/A   Clear
10:55 AM 58.3 °F - 15.6 °F 19% 30.24 in 10.0 mi WSW 11.5 mph - N/A   Clear
11:15 AM 60.3 °F - 16.2 °F 18% 30.25 in 10.0 mi West 10.4 mph - N/A   Clear
11:35 AM 60.8 °F - 14.7 °F 17% 30.24 in 10.0 mi WSW 9.2 mph - N/A   Clear
11:55 AM 62.8 °F - 16.0 °F 16% 30.24 in 10.0 mi WSW 10.4 mph - N/A   Clear
12:15 PM 63.9 °F - 15.1 °F 15% 30.23 in 10.0 mi WSW 12.7 mph 18.4 mph N/A   Clear
12:35 PM 65.1 °F - 14.2 °F 14% 30.22 in 10.0 mi West 10.4 mph - N/A   Clear
12:55 PM 65.8 °F - 12.6 °F 13% 30.20 in 10.0 mi NNW 11.5 mph 19.6 mph N/A   Clear
1:15 PM 65.7 °F - 10.4 °F 12% 30.20 in 10.0 mi NNW 11.5 mph 17.3 mph N/A   Clear
1:35 PM 66.7 °F - 11.1 °F 12% 30.19 in 10.0 mi North 5.8 mph - N/A   Clear
1:55 PM 66.9 °F - 12.6 °F 12% 30.19 in 10.0 mi NNE 9.2 mph - N/A   Clear
2:15 PM 65.8 °F - 12.7 °F 13% 30.19 in 10.0 mi NE 10.4 mph 16.1 mph N/A   Clear
2:35 PM 66.6 °F - 12.9 °F 13% 30.19 in 10.0 mi NNE 9.2 mph - N/A   Clear
2:55 PM 66.4 °F - 12.9 °F 13% 30.19 in 10.0 mi NE 5.8 mph - N/A   Clear
3:15 PM 66.9 °F - 13.1 °F 12% 30.19 in 10.0 mi ENE 6.9 mph - N/A   Clear
3:35 PM 67.3 °F - 12.6 °F 12% 30.19 in 10.0 mi North 9.2 mph - N/A   Clear
3:55 PM 66.6 °F - 13.5 °F 13% 30.20 in 10.0 mi North 9.2 mph - N/A   Clear
4:15 PM 66.2 °F - 14.5 °F 14% 30.20 in 10.0 mi ENE 10.4 mph - N/A   Clear
4:35 PM 65.7 °F - 14.5 °F 14% 30.21 in 10.0 mi North 13.8 mph 19.6 mph N/A   Clear
4:55 PM 64.4 °F - 14.2 °F 14% 30.23 in 10.0 mi NNE 12.7 mph - N/A   Clear
5:15 PM 62.8 °F - 15.4 °F 16% 30.24 in 10.0 mi NNE 11.5 mph - N/A   Clear
5:35 PM 61.0 °F - 17.1 °F 18% 30.25 in 10.0 mi NE 11.5 mph - N/A   Clear
5:55 PM 59.4 °F - 16.9 °F 19% 30.25 in 10.0 mi NE 10.4 mph - N/A   Clear
6:15 PM 56.3 °F - 16.9 °F 21% 30.27 in 10.0 mi NE 4.6 mph - N/A   Clear
6:35 PM 52.5 °F - 16.3 °F 24% 30.27 in 10.0 mi ENE 4.6 mph - N/A   Clear
6:55 PM 52.0 °F - 15.4 °F 24% 30.28 in 10.0 mi East 4.6 mph - N/A   Clear
7:15 PM 50.2 °F - 15.3 °F 25% 30.29 in 10.0 mi East 4.6 mph - N/A   Clear
7:35 PM 50.0 °F - 15.3 °F 25% 30.30 in 10.0 mi Calm Calm - N/A   Clear
7:55 PM 50.9 °F - 15.3 °F 24% 30.31 in 10.0 mi Calm Calm - N/A   Clear
8:15 PM 40.8 °F 37.8 °F 13.3 °F 33% 30.31 in 10.0 mi WSW 4.6 mph - N/A   Clear
8:35 PM 39.0 °F 34.0 °F 14.0 °F 36% 30.32 in 10.0 mi SSW 6.9 mph - N/A   Clear
8:55 PM 38.3 °F 34.8 °F 13.1 °F 36% 30.32 in 10.0 mi SSW 4.6 mph - N/A   Clear
9:15 PM 39.9 °F 35.8 °F 13.6 °F 34% 30.32 in 10.0 mi SW 5.8 mph - N/A   Clear
9:35 PM 36.9 °F 33.1 °F 13.1 °F 38% 30.32 in 10.0 mi SW 4.6 mph - N/A   Clear
9:55 PM 35.2 °F 32.4 °F 13.8 °F 41% 30.34 in 10.0 mi SW 3.5 mph - N/A   Clear
10:15 PM 34.7 °F 30.6 °F 13.8 °F 42% 30.34 in 10.0 mi WSW 4.6 mph - N/A   Clear
10:35 PM 33.3 °F 28.9 °F 13.5 °F 44% 30.35 in 10.0 mi SW 4.6 mph - N/A   Clear
10:55 PM 32.7 °F 27.3 °F 13.6 °F 45% 30.35 in 10.0 mi WSW 5.8 mph - N/A   Clear
11:15 PM 32.7 °F 27.3 °F 13.8 °F 46% 30.36 in 10.0 mi West 5.8 mph - N/A   Clear
11:35 PM 33.8 °F 28.6 °F 13.8 °F 44% 30.37 in 10.0 mi SSW 5.8 mph - N/A   Clear
11:55 PM 32.0 °F 27.5 °F 13.5 °F 46% 30.36 in 10.0 mi West 4.6 mph - N/A   Clear